Wind_Speed
34 34 34 34 35 35 35 35 35 34 34 33 32 30 29 27 26 25 24 24 23 22 21 20 19 18 16 15 14 13 12 11 10 9 9 8 7 6 6 6 7 8 9 10 11 12 12 13 14 16 20 23 27 31 34 35 37 39 40 39 39 39 39 36 36 34 32 34 37 37 37 36 36 35 33 33 36 36 34 34 35 35 34 34 36 36 37 37
36 36 37 37 37 38 38 37 37 36 36 35 34 33 31 30 29 28 27 26 25 24 24 23 22 21 20 18 17 16 15 14 13 12 11 11 10 9 8 7 7 7 7 8 9 10 10 11 12 12 14 16 20 25 29 31 33 35 36 36 36 37 37 34 32 31 28 28 30 31 31 32 33 32 29 29 31 32 33 33 33 33 32 32 33 34 34 35
39 39 39 39 40 40 40 39 39 39 38 38 37 35 34 33 32 31 30 29 28 27 26 26 25 24 23 22 21 20 18 17 16 15 14 13 12 11 11 10 9 8 8 7 7 8 9 9 10 11 11 12 13 16 20 24 26 29 30 31 31 32 33 30 28 26 24 24 25 27 27 27 28 28 27 27 27 28 32 31 29 29 30 31 31 31 33 34
42 42 42 42 42 42 42 42 41 41 40 40 39 38 37 36 35 34 33 32 30 29 28 28 27 27 26 25 24 24 23 21 19 18 17 16 15 14 14 13 12 11 10 9 8 8 8 8 9 9 10 11 11 11 13 15 18 21 25 25 25 26 27 27 25 23 21 22 25 27 25 23 23 22 21 21 21 22 25 25 25 26 27 28 27 28 31 32
45 45 45 45 45 45 44 44 44 43 42 42 41 40 39 38 38 37 36 35 33 31 31 30 30 29 29 28 27 27 26 25 23 21 20 20 19 17 16 16 15 14 13 12 11 10 9 8 8 8 9 9 10 11 11 12 12 15 19 21 22 23 24 24 22 19 18 18 21 21 19 17 17 17 17 17 17 18 19 18 18 20 21 23 24 25 27 30
48 48 48 48 48 47 47 46 46 45 45 44 43 42 42 41 40 39 39 38 36 35 33 32 33 32 31 31 29 29 29 28 27 24 23 24 22 20 19 19 18 17 16 14 13 13 12 11 11 10 9 9 10 10 11 12 12 12 15 18 21 21 20 20 18 16 15 14 15 14 13 14 14 13 13 13 14 15 15 14 15 17 18 19 21 22 24 26
50 50 50 50 50 49 49 48 48 47 46 46 45 44 43 43 42 41 41 40 39 38 36 34 35 34 34 33 32 32 31 31 30 28 28 27 24 23 22 22 21 20 18 17 16 16 15 14 14 13 12 11 11 11 12 12 13 13 14 15 19 20 18 17 17 16 15 14 14 13 12 12 11 11 13 12 12 13 13 12 13 16 17 18 20 20 22 24
52 52 52 52 51 51 50 50 49 49 48 47 46 46 46 45 44 43 43 42 41 40 38 37 36 36 35 35 35 34 34 34 32 31 32 30 28 26 25 25 24 22 21 20 19 19 18 18 16 15 14 13 13 14 14 14 14 14 14 15 16 18 18 17 17 17 16 16 16 15 13 13 12 13 14 13 12 12 12 11 13 16 18 20 21 21 23 24
53 53 53 53 53 52 52 51 51 50 50 49 48 48 47 47 46 45 44 44 43 42 40 39 38 38 37 37 37 36 36 35 33 34 34 34 31 29 28 28 27 26 24 23 22 22 21 20 18 17 16 15 17 18 17 17 16 15 15 15 16 17 18 18 19 18 18 17 17 16 14 14 13 14 14 12 12 12 11 12 14 16 18 19 19 20 22 23
54 54 54 54 54 54 53 52 52 52 52 52 51 50 49 49 48 47 46 45 44 43 41 41 40 39 39 39 39 38 37 37 36 35 36 37 35 33 32 31 30 29 27 26 25 25 24 22 20 20 19 20 22 22 20 19 17 16 17 17 17 18 18 19 19 19 19 18 18 17 16 15 15 14 14 13 13 12 11 12 14 16 17 18 18 19 20 21
56 56 56 56 56 55 55 55 54 54 54 54 53 52 51 50 49 48 47 45 45 43 42 41 41 41 40 41 41 39 39 40 38 36 37 39 37 36 36 34 33 31 30 29 28 27 27 25 23 23 24 25 25 23 22 20 19 19 20 19 19 19 19 19 20 19 19 19 19 18 17 17 16 15 15 14 14 13 10 11 13 15 17 18 18 18 19 18
58 58 57 57 58 58 57 57 57 56 56 56 55 54 53 51 50 49 47 46 46 44 43 42 42 42 41 43 43 39 41 43 39 38 39 40 40 39 38 37 35 34 33 32 31 30 29 28 26 27 28 27 26 25 23 23 22 23 23 22 21 20 20 20 20 20 20 20 19 19 18 17 17 15 15 15 14 12 10 10 12 14 16 16 16 16 17 16
59 59 59 59 60 60 59 59 59 58 58 57 57 56 54 52 51 50 49 48 47 46 45 43 43 43 43 45 43 40 44 45 41 40 40 41 41 41 41 40 38 37 36 35 34 33 32 31 30 30 29 28 28 26 25 25 25 26 25 24 23 23 23 21 20 21 21 20 20 19 18 18 17 16 16 15 14 13 11 11 12 14 15 13 14 14 15 16
61 61 61 61 61 61 61 61 60 60 59 58 58 57 56 54 53 52 51 50 49 48 47 46 45 44 45 47 44 42 46 46 44 43 41 42 42 43 43 42 41 40 39 38 37 36 35 34 33 32 31 31 31 28 27 27 26 27 27 25 25 25 25 22 21 22 22 21 21 20 19 18 18 17 17 15 14 13 13 13 13 13 12 10 13 15 15 15
63 63 63 63 63 63 63 62 62 62 61 60 60 59 59 58 56 55 54 54 52 52 50 49 48 47 48 49 45 45 47 48 47 44 42 43 44 45 45 44 43 42 41 40 40 39 37 36 35 35 34 33 32 31 31 29 28 29 29 28 28 27 26 22 23 25 24 23 22 22 20 18 18 18 18 16 14 13 11 13 13 12 11 10 14 17 15 13
66 66 66 66 66 66 66 65 65 65 64 64 63 63 62 61 60 59 58 57 56 56 54 53 52 50 51 51 49 47 48 50 49 46 46 46 46 46 46 45 45 44 44 43 42 41 40 39 38 37 36 35 34 35 35 32 30 31 31 31 30 29 27 25 27 28 25 24 24 23 22 19 19 19 19 16 15 13 9 10 12 13 13 12 15 17 15 12
69 69 69 69 69 69 69 69 69 68 68 67 67 66 66 65 64 63 62 61 60 60 58 57 56 54 54 55 52 50 49 52 52 49 50 49 47 47 47 48 48 46 46 45 44 43 42 42 41 40 38 37 37 37 36 36 35 34 34 34 31 30 30 28 29 30 27 27 25 24 24 21 19 20 20 17 14 13 10 9 11 14 13 13 15 16 14 10
73 73 73 73 72 72 72 72 72 72 71 71 70 70 69 69 68 66 65 65 64 63 62 60 58 58 58 57 56 53 52 54 54 53 53 52 50 49 49 50 50 48 47 46 47 46 45 44 43 41 40 40 39 38 39 41 39 35 35 35 32 31 32 31 31 31 29 29 28 26 26 23 21 21 21 19 16 16 14 11 11 12 12 12 14 15 13 8
77 77 76 77 76 76 76 76 75 75 75 74 74 73 73 73 72 69 68 69 67 66 65 62 61 62 61 60 61 58 55 56 56 56 55 55 53 51 51 51 51 50 49 49 49 48 47 46 44 44 44 43 42 41 44 44 39 36 36 35 33 32 33 33 33 32 31 32 31 29 28 25 24 23 23 22 20 18 16 13 12 12 13 12 13 15 13 9
80 80 80 80 80 80 80 80 79 79 78 78 78 77 76 75 75 73 71 72 71 69 69 65 65 67 64 63 64 61 59 59 59 58 58 57 55 54 53 53 52 52 52 52 52 51 49 47 46 47 47 46 44 44 45 43 39 37 37 37 36 35 35 35 35 34 33 34 35 33 30 28 27 26 25 24 22 20 18 15 13 14 13 12 12 14 13 12
84 84 84 84 84 83 83 84 83 83 82 82 81 81 80 78 79 77 74 74 74 73 72 69 68 68 68 66 66 65 63 62 61 60 60 58 57 57 56 55 55 54 55 55 54 52 49 48 50 50 49 47 46 45 45 44 41 40 40 40 39 38 38 38 38 37 37 38 38 36 33 31 30 29 27 26 24 22 21 17 14 15 14 12 11 13 13 12
85 86 86 87 87 87 87 87 87 87 86 86 85 85 84 83 82 81 78 76 77 77 75 73 70 70 73 71 69 68 66 65 63 62 61 60 58 58 58 58 57 58 59 57 54 52 49 51 54 53 50 48 46 46 46 46 44 43 43 43 42 41 41 41 41 41 41 41 41 38 36 36 34 33 30 28 26 24 22 19 16 15 14 13 13 13 11 12
87 87 88 88 89 89 88 89 90 90 89 89 89 88 88 87 86 85 82 78 80 82 78 77 75 73 76 76 72 71 70 69 67 64 63 62 61 62 61 60 60 60 60 57 55 54 53 55 56 53 50 48 47 47 47 47 46 45 45 45 44 44 44 43 43 44 44 43 43 41 40 40 38 35 33 31 28 25 23 22 19 16 15 14 13 11 10 13
89 89 90 90 91 91 90 90 92 92 91 90 91 91 91 90 89 88 86 82 80 84 84 81 79 77 78 80 78 74 73 73 71 67 66 65 67 66 63 62 63 61 59 58 58 57 56 58 56 53 50 48 48 48 48 48 47 47 47 47 47 47 45 45 45 46 46 45 45 42 41 42 41 38 36 34 30 26 24 23 21 18 16 16 14 11 11 14
92 93 93 93 94 94 94 93 94 94 93 92 92 92 92 92 92 90 88 86 81 83 88 85 81 81 82 84 81 76 76 76 74 71 69 69 71 70 67 66 65 62 60 61 61 60 59 59 56 54 52 50 50 50 49 50 49 49 48 49 50 48 47 47 46 47 48 46 45 43 42 44 43 41 39 37 33 29 27 24 22 20 18 17 16 13 13 13
96 97 97 97 97 98 98 96 96 96 96 95 94 94 93 93 93 91 89 87 82 82 89 88 85 84 85 85 82 79 79 77 76 75 72 71 72 73 70 68 66 65 64 66 64 61 60 59 57 55 54 53 52 51 51 51 51 50 50 52 52 49 49 48 47 48 48 47 47 44 43 45 45 43 42 39 36 35 31 26 23 23 20 19 18 16 15 14
98 99 100 100 100 101 102 101 100 100 99 98 97 95 95 94 93 93 90 88 85 85 87 89 88 86 86 86 83 82 79 77 79 78 73 72 73 74 71 68 67 67 68 69 65 60 61 61 59 58 56 55 53 53 54 54 52 52 53 54 53 51 50 49 48 49 48 49 49 45 44 46 44 44 44 41 39 38 33 28 26 25 23 21 19 18 16 15
97 99 100 102 101 101 103 103 103 103 102 101 100 98 96 96 94 94 93 90 89 89 88 89 90 89 89 87 84 82 79 79 80 80 76 74 74 74 72 69 68 69 71 69 63 62 65 65 62 60 59 56 55 55 56 55 54 54 55 55 53 51 50 49 49 49 49 50 49 46 46 46 44 45 45 42 41 38 35 32 30 27 25 22 20 19 18 17
95 97 99 100 101 101 102 102 102 103 104 102 101 100 99 98 96 95 95 92 92 94 93 92 93 93 91 88 85 83 82 81 81 81 80 76 75 76 74 72 70 70 71 68 64 66 68 66 63 62 59 56 56 56 56 54 54 55 55 53 52 51 50 50 50 50 50 49 47 48 48 45 45 48 47 44 42 40 38 36 32 30 27 23 21 21 20 19
96 97 98 98 99 100 100 99 100 101 102 101 100 100 99 98 98 98 97 94 96 100 98 95 96 96 94 91 87 86 85 83 82 83 83 78 76 77 75 74 73 71 71 69 66 66 67 66 64 60 57 56 56 56 54 53 55 55 52 52 51 50 50 50 50 51 49 47 46 48 49 47 47 50 48 45 44 43 41 38 34 31 28 25 23 22 21 20
99 100 100 100 100 100 99 98 97 96 97 97 97 97 97 97 97 97 97 96 102 108 104 100 98 95 95 94 90 88 87 86 85 85 84 80 77 77 76 75 73 71 70 67 64 65 67 64 61 58 56 56 55 54 53 53 55 53 51 52 52 51 51 50 50 50 46 44 46 49 52 51 49 51 51 48 46 45 44 40 36 33 31 28 26 24 23 22
101 102 102 102 101 101 100 99 97 94 92 91 90 91 93 95 94 95 96 99 107 112 108 104 97 92 93 94 92 90 89 89 88 87 85 82 79 78 77 75 73 71 68 65 64 65 65 62 60 59 58 58 56 53 53 54 54 53 52 53 52 50 51 50 49 48 45 47 50 54 57 53 50 53 53 51 49 48 46 42 38 36 34 31 29 27 25 22
100 102 103 103 103 102 101 100 97 94 91 87 86 87 88 90 91 93 97 104 111 111 106 101 94 91 92 93 93 92 91 91 91 90 88 85 83 81 79 78 77 74 71 71 71 70 68 66 64 61 59 59 56 53 54 55 54 53 52 52 52 51 51 49 49 48 49 51 54 57 56 50 48 52 51 51 52 51 49 44 40 39 36 33 32 30 27 24
97 98 100 101 101 101 101 100 97 93 89 86 84 84 86 87 90 94 99 106 110 106 98 93 89 90 92 94 96 96 94 94 93 93 91 88 86 84 83 81 79 76 76 77 76 73 71 69 64 60 59 58 55 53 55 57 55 54 54 54 53 52 50 50 50 50 51 53 55 55 51 46 46 48 49 48 50 51 49 46 44 41 37 35 34 33 30 26
92 93 94 95 96 97 97 97 95 92 88 85 83 84 85 87 91 97 101 104 103 96 90 88 87 87 89 93 98 99 99 98 97 97 94 91 88 86 85 83 81 80 80 78 76 74 72 68 64 63 63 61 58 57 58 58 56 56 57 54 52 51 51 50 50 51 52 53 53 50 45 44 45 46 46 44 45 48 48 46 45 41 38 37 36 35 33 29
86 87 88 89 90 90 91 92 91 89 86 84 84 84 86 88 92 95 96 96 95 90 86 86 87 86 88 93 98 101 103 103 103 101 99 94 90 88 88 86 85 83 81 78 76 75 73 69 68 68 66 63 61 60 60 58 57 59 56 52 52 54 52 49 49 51 51 49 48 45 43 44 44 43 44 42 42 44 45 46 45 41 40 38 37 37 36 32
80 80 81 82 83 83 84 85 85 84 81 80 81 82 84 87 91 91 90 90 90 88 86 86 86 86 88 92 97 101 106 109 108 107 102 97 92 91 90 88 87 85 82 80 79 77 74 72 72 70 66 64 63 63 62 60 59 59 55 53 57 56 49 48 49 48 47 45 46 45 44 45 44 43 44 44 43 42 42 44 43 41 41 40 38 39 38 36
74 72 73 73 74 75 76 76 76 75 74 73 74 76 79 83 87 88 90 90 89 87 87 89 90 86 85 89 95 100 105 107 108 106 102 98 95 93 93 92 91 87 84 83 82 80 76 75 75 72 69 67 67 67 64 59 58 57 55 57 57 51 46 47 48 45 44 44 44 44 44 43 41 41 44 45 44 43 43 43 42 42 43 42 41 40 41 38
67 65 66 66 66 67 68 69 69 67 66 65 66 68 70 75 80 84 88 89 89 88 88 92 93 88 84 86 91 98 102 103 103 102 101 101 100 100 100 98 94 91 88 87 85 81 78 78 76 73 71 70 70 67 61 57 57 56 56 57 53 47 46 47 47 46 45 45 44 45 44 42 39 40 42 41 41 43 45 44 43 45 45 45 44 43 43 40
62 61 60 60 60 61 61 62 62 61 61 60 60 60 62 65 71 77 82 85 88 90 89 91 93 89 88 88 90 95 100 101 101 101 100 103 106 106 105 101 98 95 91 87 84 81 79 78 75 73 73 72 67 62 57 56 57 56 56 55 51 47 46 46 46 46 45 45 45 44 43 41 39 38 37 36 37 41 43 43 45 47 48 49 47 46 45 42
58 57 56 55 54 55 56 56 57 56 55 56 56 55 56 58 62 67 73 78 85 89 90 91 93 92 92 95 95 95 98 99 100 100 100 103 107 107 105 103 101 96 90 85 82 81 79 75 75 76 75 68 62 60 59 59 59 58 58 57 53 50 48 46 45 45 44 44 44 43 42 41 37 34 34 35 37 40 40 40 44 48 50 51 50 48 47 44
54 52 52 51 51 50 50 50 51 51 50 50 52 52 52 53 56 59 64 70 77 84 89 93 95 94 95 97 96 95 96 96 98 101 103 106 107 105 101 100 98 94 90 88 85 84 80 77 78 79 74 66 63 64 64 63 62 62 61 59 55 53 51 47 47 47 46 46 46 44 44 41 36 35 35 33 34 37 38 40 43 47 50 51 50 50 48 45
52 50 47 47 47 46 45 45 46 46 45 45 46 48 49 50 52 53 57 63 70 78 85 92 96 97 97 97 95 95 95 96 99 103 105 106 105 100 95 93 93 92 91 91 89 89 88 85 82 80 74 69 67 68 68 66 65 63 61 59 55 54 52 51 51 51 49 49 49 47 47 43 37 35 33 31 32 36 37 39 41 45 49 50 51 51 49 47
48 48 46 43 44 44 42 42 42 42 41 42 42 44 45 47 48 50 52 57 64 72 79 88 95 99 100 99 97 97 97 98 102 105 105 104 102 97 91 89 90 90 90 90 90 91 91 87 82 79 78 74 70 69 68 65 62 60 60 59 55 55 55 54 54 53 52 52 50 50 50 45 39 36 31 28 32 36 37 38 39 43 48 50 50 51 50 49
45 45 45 43 41 41 41 40 39 39 38 38 39 40 42 44 45 47 50 53 59 67 74 83 92 98 102 102 101 100 100 100 104 105 105 105 102 95 88 87 88 88 87 87 89 91 90 85 81 81 81 77 70 68 67 64 61 60 61 60 58 58 57 56 55 54 53 53 51 52 51 43 40 40 32 27 30 34 36 38 38 41 45 46 47 49 51 50
45 44 44 43 42 40 40 39 38 38 37 35 35 37 38 40 42 44 47 50 56 62 68 77 87 96 101 103 103 103 103 103 104 104 105 105 100 90 85 85 86 85 85 86 89 92 89 84 82 82 82 79 74 72 72 69 66 64 64 63 61 60 59 58 57 55 54 54 54 55 52 43 42 42 34 31 33 35 36 37 37 38 41 42 46 50 53 52
46 44 42 42 41 40 39 39 38 37 36 34 33 34 36 37 39 42 45 48 53 58 64 73 82 91 98 102 105 107 106 105 104 104 105 103 96 87 83 86 87 85 84 87 91 92 89 86 84 83 82 82 78 76 75 73 68 66 66 65 64 63 62 60 57 56 57 57 57 58 53 45 44 42 36 36 38 38 38 37 36 37 39 41 46 51 54 54
45 45 43 40 38 38 38 37 37 36 36 34 32 32 34 35 36 40 42 46 50 55 62 69 77 86 94 99 105 109 108 106 104 105 105 100 92 85 84 87 87 86 87 89 92 92 90 87 85 84 85 84 81 78 77 74 70 67 67 67 67 66 65 63 61 60 60 59 60 60 55 49 46 44 42 43 42 40 39 38 36 37 38 41 45 50 52 53
43 43 44 42 38 35 35 35 35 34 34 34 32 30 32 33 34 37 40 44 48 53 59 66 73 82 89 96 102 108 109 106 105 107 105 98 90 86 85 86 86 87 89 90 90 90 88 85 85 87 89 88 84 80 77 75 73 71 69 70 69 68 66 66 65 64 63 62 62 61 58 53 51 51 49 47 44 42 40 38 37 38 39 41 44 48 52 53
43 41 42 42 40 35 33 32 32 32 31 32 32 29 29 31 32 34 38 41 45 51 57 63 69 77 85 91 98 105 107 105 105 107 104 97 91 88 86 85 85 88 90 90 89 87 85 85 87 90 90 88 85 81 79 77 76 74 70 69 69 68 68 69 69 67 66 65 64 63 61 58 55 55 51 46 43 42 39 38 40 41 41 42 44 47 51 52
44 42 41 41 40 36 33 30 29 29 28 28 30 30 27 28 30 32 35 39 43 48 54 60 66 73 80 87 94 100 103 102 103 105 103 96 92 90 87 85 85 87 90 90 87 85 85 88 91 92 90 87 85 82 81 79 77 74 72 70 70 70 70 71 70 69 69 68 67 66 63 60 59 57 52 46 44 42 41 42 44 44 43 43 43 44 47 49
45 44 42 42 40 36 33 30 28 27 26 25 27 28 27 27 28 30 33 37 41 45 51 57 63 69 76 82 88 94 99 100 101 102 100 95 92 91 90 88 87 88 90 90 87 86 88 91 92 92 90 87 85 83 82 81 79 77 74 72 71 71 73 74 73 72 71 70 68 66 64 64 63 57 51 47 45 46 47 47 45 43 41 40 41 42 44 48
Wind_Direction
249 251 252 253 254 255 255 256 257 257 258 258 258 257 257 258 258 258 256 254 252 250 247 242 240 236 231 230 229 224 215 206 202 197 190 184 178 177 175 165 155 152 149 149 150 154 161 172 185 198 208 215 219 222 224 226 228 230 232 233 233 235 237 240 243 249 257 260 262 265 267 266 266 267 266 265 266 267 267 267 269 271 273 274 276 277 279 280
250 251 252 253 254 255 255 256 257 258 259 260 260 260 259 259 259 258 256 255 252 250 248 245 242 239 235 233 232 229 224 218 211 207 205 199 194 191 190 192 185 175 168 162 159 158 159 162 167 175 187 200 210 217 222 225 226 228 230 232 233 233 236 241 241 246 257 263 265 267 267 267 267 269 266 264 265 264 264 265 267 269 270 271 273 274 275 277
250 251 252 253 254 255 256 257 257 258 260 261 262 262 262 262 261 259 257 255 253 251 249 248 245 242 238 236 234 232 229 225 219 215 214 207 205 205 198 199 201 196 193 186 179 173 170 170 170 173 174 181 193 204 213 219 223 224 226 229 232 232 234 238 237 241 253 259 263 267 268 269 268 268 265 262 261 261 264 266 266 266 267 269 270 272 273 274
250 252 252 253 254 255 256 257 258 259 260 261 262 263 263 263 263 261 259 257 254 252 251 249 247 244 241 238 237 235 233 230 225 222 222 215 211 215 210 205 206 206 205 202 200 196 192 187 183 183 183 182 183 188 195 204 212 216 219 220 223 226 229 232 231 235 247 254 261 266 267 267 269 266 263 261 256 259 265 265 264 262 261 264 269 272 273 274
252 252 253 254 255 256 257 258 259 260 261 262 262 263 263 263 263 263 261 259 256 254 252 250 249 246 244 240 238 238 235 233 230 226 226 223 217 218 220 215 210 211 211 208 209 211 210 209 206 201 199 197 194 192 190 191 198 204 209 211 212 219 226 228 228 232 243 254 259 264 264 259 262 264 261 258 254 254 257 259 260 259 259 262 266 270 272 275
254 254 255 255 256 257 258 258 259 260 261 262 262 263 263 263 263 262 262 261 259 256 253 251 250 248 246 243 240 240 238 235 233 229 229 229 223 220 224 224 218 214 215 214 214 215 216 218 222 220 217 215 211 206 201 195 194 195 200 205 207 211 218 220 222 230 240 250 250 254 259 251 253 263 261 255 251 249 250 253 255 258 262 265 266 266 270 273
256 256 256 257 257 258 258 259 259 260 260 261 261 262 262 262 262 262 262 261 260 257 254 252 251 249 248 246 242 241 240 238 235 232 231 231 229 225 225 228 226 220 218 219 219 219 218 220 222 225 226 224 227 223 219 211 203 198 197 200 204 206 211 216 222 232 238 244 244 245 252 251 251 258 261 259 257 257 257 254 252 258 264 268 271 269 270 272
257 257 257 258 258 258 258 259 259 259 260 260 260 260 261 261 261 261 261 260 260 258 256 253 251 249 248 247 245 242 241 240 237 236 234 232 231 230 228 229 230 227 223 222 224 223 222 221 221 224 228 229 232 232 229 225 217 211 205 201 204 210 216 220 226 232 235 239 243 247 251 255 254 255 261 265 264 266 267 258 255 264 270 273 275 272 270 271
258 258 258 258 259 259 259 258 259 259 259 259 259 260 260 260 260 260 260 259 258 257 256 253 251 249 247 247 246 244 242 241 238 238 239 235 231 231 232 232 232 231 228 226 226 228 227 224 223 224 227 231 234 233 232 230 227 224 220 214 211 215 220 226 229 231 234 238 242 249 253 255 255 256 261 263 262 266 269 262 260 269 274 273 272 269 268 269
258 259 259 259 259 259 258 258 259 259 259 259 259 260 260 260 260 259 259 258 256 255 254 253 251 249 247 246 246 244 244 243 239 238 240 239 235 232 233 234 234 233 231 230 230 231 231 228 227 228 228 230 231 231 231 231 231 231 230 227 224 222 224 229 233 235 239 243 247 251 254 255 256 258 260 261 262 266 265 262 267 273 276 275 270 267 266 267
259 259 259 259 259 259 259 259 259 259 260 260 260 260 260 260 259 258 258 256 255 253 252 251 250 249 247 246 245 244 244 243 240 237 239 241 239 235 233 233 235 236 234 234 233 233 235 233 231 232 232 230 231 232 233 235 234 233 233 232 232 231 230 232 236 240 244 247 250 252 255 256 258 260 262 263 264 267 263 261 271 280 282 279 272 268 264 266
259 259 260 260 260 260 260 260 260 260 261 261 261 260 260 259 258 257 256 255 254 252 250 249 248 248 247 246 245 244 244 243 240 237 237 240 241 239 236 234 234 236 237 236 235 235 236 236 235 235 236 234 234 233 234 236 235 234 233 233 234 234 235 235 239 244 246 249 252 255 257 259 261 263 264 267 267 269 268 263 269 284 291 283 274 273 268 273
260 260 260 260 260 260 260 260 260 260 260 261 261 260 259 258 257 256 255 254 253 252 250 248 246 246 246 246 245 244 245 244 241 238 236 238 240 241 240 237 235 235 237 238 237 237 237 237 237 238 239 240 239 236 235 236 236 237 237 235 236 237 237 237 240 245 249 251 253 255 257 261 264 265 266 270 272 274 278 276 276 289 298 286 274 279 279 287
261 260 260 260 260 260 260 260 260 260 260 260 260 259 259 257 256 255 254 254 253 252 250 248 246 245 245 245 243 243 245 245 242 239 237 237 239 241 241 240 238 236 236 238 239 239 238 238 239 240 241 243 243 241 240 238 237 240 241 239 238 238 239 239 242 246 249 251 253 255 256 261 265 267 269 271 276 280 286 291 293 293 296 285 271 277 282 290
262 261 261 261 261 261 261 260 260 260 259 259 259 259 258 257 256 255 254 253 253 252 250 249 247 245 245 245 242 242 244 245 244 241 238 237 238 240 241 241 240 239 237 238 240 240 240 240 240 241 241 243 246 247 245 241 240 242 243 242 240 241 242 241 244 246 247 250 254 256 257 260 266 269 270 273 275 277 288 299 297 290 288 282 274 279 285 284
263 263 262 262 262 262 262 261 261 260 260 259 259 258 258 257 256 256 255 254 253 252 251 250 249 247 247 246 242 240 243 246 245 243 240 238 237 239 240 241 241 241 240 239 239 241 242 242 242 242 243 243 245 246 247 245 242 242 244 243 241 242 242 240 243 245 246 249 252 256 258 260 266 270 271 273 272 268 283 295 285 283 287 287 283 287 288 278
263 263 263 262 262 262 262 261 261 261 260 259 259 259 258 257 256 256 255 255 254 253 252 251 250 249 249 248 244 241 242 246 246 244 242 239 237 238 240 242 242 241 242 242 241 241 242 242 243 243 244 244 244 246 249 248 245 241 243 244 242 242 243 241 243 246 247 248 250 253 257 258 264 269 271 272 269 262 268 273 267 275 284 287 287 289 287 275
263 263 262 262 261 261 261 261 261 260 260 259 259 258 258 257 256 256 256 255 254 253 253 252 252 251 250 250 248 243 242 244 246 245 244 242 239 238 240 241 242 242 242 243 243 242 242 243 244 244 245 245 245 245 246 246 245 243 244 246 245 244 245 244 245 247 249 251 250 251 254 256 259 264 267 269 266 258 259 265 261 264 272 278 282 285 286 273
264 263 263 262 261 261 261 260 260 260 259 259 258 258 257 257 256 255 255 255 254 254 253 252 253 252 251 251 250 246 243 244 245 245 245 244 241 239 240 241 242 243 243 243 244 243 242 243 244 245 244 244 244 244 245 247 249 248 248 250 249 246 245 246 247 247 250 253 253 251 251 253 256 259 262 264 264 259 258 266 265 261 266 273 280 283 281 268
265 265 264 263 262 261 261 260 260 259 259 259 258 257 256 257 256 255 255 255 254 253 253 252 253 253 251 251 251 249 246 245 245 245 245 245 244 242 241 241 242 243 243 243 243 243 244 244 245 245 244 244 245 246 248 250 251 251 251 251 250 247 245 245 247 247 248 252 253 252 251 251 253 256 257 261 263 259 257 259 263 266 268 268 275 278 272 261
265 265 264 263 262 261 261 260 260 259 259 258 258 258 256 256 256 255 254 255 255 254 253 252 251 253 252 251 251 250 248 246 246 246 246 245 246 245 243 242 242 243 243 242 242 243 244 246 245 244 244 245 246 247 249 250 249 249 249 248 248 246 244 243 245 246 246 249 251 251 252 251 251 252 254 256 258 257 257 256 257 267 270 266 270 271 261 250
265 264 264 263 262 261 260 260 259 259 258 258 257 258 257 256 255 255 254 254 255 254 253 252 251 252 252 250 249 250 249 247 247 247 247 246 246 246 245 244 243 243 243 243 243 243 244 245 244 244 244 245 246 247 247 248 247 247 247 247 247 246 244 243 244 245 244 247 249 250 251 250 249 249 249 251 253 256 259 258 257 262 265 262 265 269 256 241
264 264 263 263 262 260 259 259 259 258 257 257 257 256 256 256 255 255 254 253 255 255 253 252 251 250 252 252 249 249 250 248 247 247 248 248 247 246 245 245 244 244 244 244 244 243 242 243 244 244 245 246 246 246 246 247 247 246 246 246 246 245 245 245 244 245 245 245 248 249 250 251 250 249 249 249 250 252 256 258 256 256 259 259 261 267 257 242
264 263 262 262 261 260 259 258 258 257 256 256 256 255 255 255 254 254 254 252 253 255 254 252 251 251 251 252 250 248 250 250 248 247 248 249 248 246 245 245 245 244 245 245 244 243 242 243 245 245 245 245 245 245 245 246 245 244 244 245 245 245 245 245 244 246 247 246 248 249 251 253 253 251 250 249 248 247 249 252 254 253 255 258 258 259 255 246
264 263 262 262 261 260 259 258 257 257 256 254 254 254 254 254 253 253 253 252 250 253 254 252 250 250 249 250 251 249 249 250 249 248 247 247 248 247 245 245 245 245 245 244 243 242 243 244 244 245 244 244 244 244 244 244 244 244 244 244 244 245 245 245 245 246 247 248 250 250 252 254 254 253 252 250 247 244 242 244 250 251 250 253 255 252 251 246
265 264 263 262 261 261 260 258 257 256 256 254 253 253 253 253 253 252 251 251 249 248 252 252 250 249 249 249 249 248 248 249 249 248 246 246 248 248 246 245 246 245 244 244 243 243 244 245 244 244 244 243 243 244 244 244 244 245 245 244 245 246 246 246 246 247 248 249 250 249 251 254 255 255 255 252 248 244 242 240 244 247 246 247 251 249 249 247
266 265 264 263 262 261 261 260 259 258 257 256 254 253 252 252 252 252 251 250 248 246 248 251 250 248 247 247 247 247 247 247 247 247 246 245 246 246 246 245 244 244 243 243 244 244 245 244 243 243 243 243 242 243 243 243 243 244 244 245 246 247 247 247 247 248 248 249 249 249 249 252 254 255 255 253 250 247 243 238 237 241 241 240 245 246 248 250
269 268 267 266 265 264 263 262 261 260 259 258 256 255 254 253 252 252 251 249 249 247 246 248 249 248 247 246 246 246 245 244 245 246 244 242 243 244 245 244 243 242 242 242 242 242 242 242 241 241 241 241 241 241 242 243 243 243 244 246 247 248 248 248 247 248 248 249 250 248 247 249 251 252 252 250 248 246 241 235 232 235 236 236 241 242 242 246
271 270 270 269 268 267 265 264 263 262 261 260 259 257 256 254 253 252 251 250 249 248 245 245 246 247 247 246 245 245 244 243 244 245 244 241 242 244 243 242 241 241 242 242 241 241 242 242 242 241 242 241 240 241 242 243 243 243 245 247 248 248 248 247 247 247 247 248 249 248 246 245 245 247 248 246 245 243 239 234 229 230 232 232 237 240 238 237
273 272 271 271 270 269 267 266 265 264 263 262 261 260 259 257 255 253 252 250 249 248 245 243 243 244 245 245 244 243 243 243 242 243 244 242 240 242 242 241 241 242 243 243 241 242 243 242 242 242 242 242 241 241 242 243 243 244 245 246 246 246 245 246 246 246 246 247 248 247 244 241 239 242 242 241 241 240 237 233 228 227 228 227 229 235 237 236
275 274 273 272 271 271 270 268 267 265 263 262 262 261 261 259 257 256 254 251 249 248 245 242 241 242 244 245 244 244 243 243 242 242 243 242 240 241 242 242 243 243 244 245 244 244 244 244 244 243 241 241 240 240 241 241 242 243 243 243 243 243 243 244 244 245 246 245 244 242 241 237 235 236 237 236 237 237 236 233 228 225 225 224 223 227 233 237
276 276 275 275 274 273 272 271 269 267 265 263 261 260 260 259 258 257 255 252 249 248 246 244 241 241 243 246 246 245 245 244 244 243 243 243 241 241 241 242 242 242 243 243 243 242 243 243 242 240 239 239 238 237 238 239 240 241 240 241 242 241 242 242 243 245 243 241 240 240 241 239 234 235 237 236 236 236 235 232 227 224 223 222 221 222 229 234
278 277 277 276 276 275 274 273 271 270 267 265 262 260 258 257 256 255 254 252 250 249 247 246 244 241 241 243 245 245 244 244 244 243 243 242 241 240 240 240 240 239 239 239 238 237 237 237 236 236 236 237 237 235 237 238 238 239 239 240 240 240 240 241 242 242 241 241 242 244 247 246 241 242 244 240 238 237 235 231 226 224 222 221 222 223 225 229
280 279 278 277 277 276 275 274 273 272 270 267 264 261 258 256 255 253 251 250 250 249 249 248 245 242 240 240 241 242 242 242 242 242 241 241 240 240 240 239 240 239 239 238 238 237 237 237 237 236 235 236 235 234 235 237 237 237 238 238 238 239 239 240 240 241 242 242 244 247 250 249 244 245 246 243 240 240 238 233 228 224 222 221 223 224 224 226
283 281 280 279 277 276 276 275 274 273 271 269 266 262 259 256 253 251 249 249 250 251 250 248 245 242 240 239 239 240 240 240 240 240 239 238 238 239 239 239 239 238 238 239 240 240 239 239 238 235 234 233 231 231 232 234 236 237 237 237 239 240 239 239 240 241 242 244 246 249 249 245 242 242 242 241 240 240 239 235 230 226 221 220 222 225 224 224
286 284 283 281 279 278 276 275 274 273 271 269 266 262 259 256 253 251 249 249 251 251 249 247 245 241 238 237 237 237 238 237 237 237 237 236 235 236 236 236 236 236 236 237 238 238 238 237 236 235 234 233 232 231 231 231 233 235 236 236 238 238 237 238 240 241 243 245 246 245 241 239 238 237 237 235 233 234 236 234 230 226 221 219 221 224 225 224
289 287 285 283 281 280 278 276 274 273 270 267 264 261 257 254 253 252 251 250 249 248 247 246 245 240 235 234 235 235 235 235 235 234 234 234 234 234 235 235 235 234 234 234 234 234 234 234 234 234 233 233 232 232 231 230 231 234 235 234 236 237 237 238 240 242 244 244 242 239 238 238 237 235 234 231 226 225 228 230 229 224 221 219 220 223 225 224
291 289 287 285 283 282 280 278 276 274 271 267 263 259 256 253 251 250 249 247 246 244 243 243 243 240 235 233 233 235 236 236 236 235 234 234 233 233 234 234 233 232 232 232 232 232 231 231 231 231 230 230 230 231 230 230 233 235 235 235 237 239 239 239 240 240 239 238 237 236 237 237 236 233 232 230 226 221 220 223 223 221 220 219 219 222 224 223
294 292 289 287 285 283 282 280 278 276 273 269 264 259 255 251 249 247 245 244 243 241 239 238 240 239 237 233 232 234 236 237 238 237 234 233 231 230 231 231 231 230 229 229 230 230 230 231 231 230 229 229 229 230 230 231 233 235 236 237 239 239 238 238 238 237 235 235 235 235 235 234 232 230 231 230 227 223 220 219 217 217 217 217 217 219 222 221
297 294 291 289 287 285 283 281 279 277 275 272 267 261 256 251 247 244 242 240 239 239 237 235 235 236 236 235 232 232 234 235 236 236 235 233 231 229 228 229 229 229 229 230 231 230 229 230 231 231 230 230 230 231 230 231 232 233 234 236 237 236 236 236 236 236 235 235 235 236 235 233 231 230 231 228 224 224 223 221 218 216 215 215 215 217 219 219
299 297 294 291 288 285 283 281 279 277 275 272 269 264 258 253 247 243 240 237 235 235 235 234 233 232 232 232 231 230 231 232 234 234 234 234 233 231 229 228 228 229 229 229 231 232 232 231 232 232 231 230 230 230 228 226 228 228 229 231 231 230 229 230 231 232 231 232 233 233 233 231 229 228 226 222 220 221 222 221 219 218 217 215 215 216 217 218
302 300 298 295 292 289 286 283 280 278 275 271 268 265 260 255 249 243 239 236 233 231 231 231 231 230 230 229 229 228 229 230 232 233 233 232 232 232 231 231 230 229 228 227 227 229 230 229 230 232 231 228 226 226 225 223 223 224 224 226 225 225 224 223 224 225 225 226 228 228 229 227 224 224 222 218 217 219 220 220 218 219 218 216 215 216 215 216
305 303 301 299 296 293 290 287 284 281 277 272 267 263 260 255 250 245 238 234 231 229 228 227 228 229 229 229 228 227 227 227 229 231 232 232 232 231 230 231 231 230 228 227 226 226 226 225 225 229 230 227 224 224 224 222 222 222 223 225 224 224 223 220 220 222 222 224 225 226 228 225 222 224 222 217 218 219 219 220 219 218 219 216 215 216 214 214
309 307 305 303 300 298 295 291 287 284 280 275 269 263 259 254 250 245 239 233 230 227 225 224 225 227 227 227 227 227 226 224 226 228 230 232 232 230 227 227 229 229 228 228 228 228 228 226 224 226 228 226 223 224 225 224 223 222 223 224 224 224 223 220 220 222 223 225 226 227 229 225 221 224 220 216 222 222 221 222 219 219 220 218 215 216 215 214
313 312 310 308 305 302 299 295 290 286 281 276 270 264 258 253 249 244 239 233 228 226 224 222 223 224 225 226 226 226 225 224 224 225 227 229 230 227 225 225 226 226 226 228 229 230 230 229 226 226 228 227 223 223 226 225 223 222 223 223 223 223 223 220 219 221 224 228 228 230 231 225 224 226 220 217 224 224 223 224 220 219 221 220 218 217 217 216
317 316 315 312 309 307 303 299 294 290 285 279 273 266 259 253 248 243 238 233 228 225 223 221 221 222 223 223 224 224 225 224 224 225 225 227 227 225 222 224 225 224 223 224 227 229 228 228 227 226 228 228 223 220 222 222 220 218 220 221 221 222 222 220 219 219 223 227 229 232 232 226 226 228 221 220 229 229 228 226 221 220 221 220 218 218 218 216
321 319 318 315 312 310 306 302 298 293 288 283 276 269 261 253 247 242 237 232 228 224 221 220 220 221 221 221 222 223 224 223 223 224 225 226 225 222 220 221 223 223 222 222 224 226 226 225 224 225 227 228 225 221 220 221 220 217 218 219 220 221 221 220 219 218 221 225 228 232 231 226 228 229 223 225 232 233 233 229 224 222 220 218 218 218 218 217
324 322 319 317 315 312 308 304 300 296 291 285 279 272 264 255 247 241 236 231 227 223 220 219 219 220 221 220 220 222 223 222 221 223 224 224 223 221 219 218 219 219 220 221 221 223 223 222 222 221 223 225 225 222 221 221 220 218 217 218 219 220 219 218 218 217 219 223 227 230 230 227 228 229 225 226 229 231 232 230 226 223 221 220 219 219 218 218
328 326 322 319 316 313 308 304 300 296 292 287 281 273 266 258 249 241 235 231 226 222 220 219 218 218 220 220 220 221 222 221 221 222 223 222 221 220 219 217 216 217 219 220 220 221 221 221 221 221 221 222 222 221 221 221 221 219 217 217 218 220 220 218 217 217 217 221 225 229 230 228 227 228 226 225 228 230 231 230 228 226 223 222 221 219 218 218
331 330 326 322 318 315 310 306 301 296 292 288 284 275 266 259 251 242 236 231 227 223 220 219 218 218 218 219 219 220 222 221 220 221 221 219 217 218 218 217 215 215 217 219 219 220 220 219 220 222 222 222 221 220 219 220 221 220 218 217 217 219 220 219 218 217 217 219 223 227 229 228 228 229 227 225 229 232 231 230 231 228 225 223 221 219 218 217
334 333 331 326 321 319 315 309 304 299 293 288 285 279 270 260 252 243 237 232 227 223 220 219 218 218 218 219 218 219 221 221 220 220 219 217 215 216 217 217 215 214 216 218 217 217 218 218 219 220 221 221 221 220 219 219 219 220 218 217 217 218 220 221 219 218 219 220 222 226 228 228 229 229 227 225 228 230 228 227 228 229 227 226 224 223 221 218
337 336 334 330 325 323 320 315 310 304 297 289 284 279 273 264 254 245 238 233 228 224 221 219 218 218 218 218 218 218 220 221 220 220 218 215 213 213 215 216 215 214 215 216 215 215 217 218 219 219 219 219 220 220 220 218 218 218 218 217 216 215 217 220 219 218 219 220 221 224 226 228 228 228 226 225 226 227 225 224 226 229 229 229 228 226 222 220
Height
10956 10956 10956 10956 10956 10956 10957 10957 10958 10958 10959 10960 10960 10961 10963 10964 10964 10965 10965 10966 10967 10968 10969 10969 10970 10970 10971 10971 10972 10972 10972 10972 10972 10972 10972 10972 10973 10974 10974 10975 10975 10976 10976 10977 10977 10977 10978 10978 10978 10979 10979 10980 10981 10982 10983 10984 10985 10987 10987 10988 10989 10991 10993 10993 10994 10996 10996 10996 10997 10997 10997 10997 10997 10998 11000 11001 10999 10998 10999 10999 10998 10998 10998 10997 10995 10994 10993 10992
10953 10953 10953 10953 10953 10953 10954 10954 10955 10955 10956 10957 10957 10959 10960 10961 10961 10962 10963 10963 10964 10965 10966 10967 10968 10968 10969 10970 10970 10971 10971 10971 10971 10971 10971 10971 10972 10973 10973 10974 10975 10975 10976 10976 10977 10977 10977 10977 10978 10978 10978 10979 10979 10980 10981 10982 10983 10984 10985 10985 10986 10989 10990 10991 10993 10994 10995 10995 10995 10994 10994 10994 10994 10995 10997 10998 10997 10997 10996 10997 10997 10996 10996 10995 10993 10992 10991 10990
10950 10950 10950 10950 10950 10950 10951 10951 10952 10952 10953 10954 10955 10956 10956 10957 10958 10959 10959 10961 10962 10963 10964 10964 10965 10966 10967 10968 10968 10969 10969 10970 10970 10971 10970 10971 10971 10971 10972 10973 10973 10974 10975 10975 10976 10976 10977 10977 10977 10977 10977 10978 10978 10978 10979 10980 10981 10982 10983 10983 10984 10987 10988 10990 10992 10993 10994 10994 10992 10991 10992 10992 10991 10992 10994 10994 10994 10995 10994 10995 10995 10994 10993 10993 10992 10991 10989 10989
10946 10946 10947 10947 10947 10947 10947 10948 10948 10949 10950 10951 10951 10952 10953 10954 10954 10955 10956 10957 10959 10960 10961 10962 10962 10963 10964 10965 10966 10966 10967 10968 10969 10969 10969 10970 10970 10970 10970 10971 10972 10973 10973 10974 10975 10975 10975 10976 10976 10976 10977 10977 10977 10977 10978 10978 10979 10980 10981 10982 10983 10985 10986 10988 10990 10991 10992 10992 10991 10989 10990 10989 10988 10989 10991 10991 10992 10993 10993 10993 10993 10992 10991 10990 10990 10989 10988 10987
10943 10943 10943 10943 10943 10944 10944 10945 10945 10946 10946 10947 10948 10949 10950 10950 10951 10951 10952 10953 10955 10957 10958 10959 10959 10960 10961 10962 10963 10964 10964 10966 10967 10967 10968 10968 10968 10969 10969 10970 10970 10971 10972 10973 10973 10974 10974 10975 10975 10975 10975 10976 10976 10976 10976 10977 10977 10978 10979 10980 10982 10983 10984 10986 10987 10989 10989 10989 10990 10989 10988 10987 10986 10987 10988 10988 10989 10990 10991 10991 10991 10989 10988 10988 10987 10987 10986 10984
10939 10939 10939 10939 10940 10940 10940 10941 10941 10942 10943 10943 10944 10945 10946 10947 10947 10948 10948 10949 10951 10953 10954 10955 10955 10956 10957 10959 10960 10961 10961 10963 10964 10965 10966 10966 10967 10967 10967 10967 10968 10969 10970 10971 10971 10972 10973 10973 10974 10974 10974 10974 10974 10975 10975 10976 10976 10977 10978 10979 10980 10982 10983 10984 10985 10986 10986 10987 10988 10987 10986 10986 10986 10986 10987 10987 10988 10989 10989 10990 10989 10987 10986 10986 10985 10985 10984 10983
10934 10934 10935 10935 10935 10936 10936 10937 10937 10938 10938 10939 10940 10941 10942 10943 10943 10944 10945 10945 10946 10948 10950 10952 10952 10953 10954 10955 10956 10957 10958 10959 10961 10962 10962 10963 10965 10965 10965 10965 10966 10967 10968 10969 10970 10970 10971 10971 10972 10972 10973 10973 10973 10973 10974 10974 10975 10976 10977 10978 10979 10980 10981 10983 10983 10983 10984 10985 10986 10986 10985 10985 10985 10986 10986 10986 10987 10987 10988 10989 10987 10986 10985 10985 10984 10983 10982 10981
10929 10929 10929 10930 10930 10930 10931 10932 10932 10933 10934 10934 10935 10936 10937 10938 10939 10940 10941 10941 10942 10943 10945 10947 10948 10949 10950 10951 10952 10954 10955 10956 10958 10959 10959 10961 10962 10962 10963 10963 10964 10965 10966 10967 10967 10968 10969 10969 10970 10971 10971 10972 10972 10972 10972 10972 10973 10975 10976 10977 10978 10979 10979 10980 10980 10981 10982 10983 10983 10983 10984 10984 10985 10985 10985 10986 10986 10986 10987 10987 10986 10985 10984 10984 10983 10982 10981 10980
10924 10924 10924 10924 10924 10925 10926 10926 10927 10927 10928 10929 10930 10931 10932 10933 10934 10935 10936 10936 10937 10939 10941 10942 10943 10945 10946 10946 10947 10949 10951 10952 10955 10955 10955 10957 10959 10960 10960 10961 10961 10963 10964 10964 10965 10966 10966 10967 10968 10969 10970 10970 10970 10970 10970 10971 10972 10973 10974 10975 10976 10977 10977 10978 10978 10979 10980 10981 10981 10981 10982 10982 10983 10984 10984 10984 10985 10985 10986 10985 10985 10985 10984 10983 10981 10980 10979 10978
10919 10919 10919 10919 10919 10919 10920 10921 10921 10922 10922 10923 10924 10925 10926 10927 10928 10930 10931 10931 10933 10934 10936 10937 10939 10940 10941 10942 10942 10945 10947 10948 10950 10952 10951 10952 10955 10956 10957 10957 10958 10959 10961 10962 10963 10963 10964 10965 10966 10967 10968 10967 10967 10968 10969 10970 10971 10971 10972 10973 10974 10975 10976 10976 10976 10977 10978 10978 10979 10979 10980 10980 10981 10982 10982 10983 10983 10984 10985 10984 10983 10983 10983 10981 10980 10979 10978 10977
10913 10913 10914 10913 10913 10914 10915 10915 10915 10916 10916 10917 10918 10919 10920 10921 10923 10924 10925 10926 10927 10929 10931 10932 10933 10934 10936 10937 10937 10941 10942 10942 10945 10948 10948 10948 10950 10952 10953 10954 10955 10956 10958 10958 10959 10960 10961 10963 10964 10964 10964 10964 10965 10966 10967 10968 10969 10970 10970 10971 10971 10973 10973 10974 10974 10975 10976 10976 10977 10978 10978 10979 10980 10981 10981 10982 10982 10982 10983 10983 10982 10981 10981 10980 10979 10977 10976 10976
10907 10907 10907 10908 10907 10907 10908 10909 10909 10910 10911 10911 10911 10913 10914 10915 10917 10918 10919 10920 10921 10923 10925 10927 10928 10929 10931 10931 10933 10937 10936 10936 10941 10944 10944 10944 10945 10947 10949 10950 10952 10952 10953 10955 10956 10957 10958 10959 10961 10961 10960 10962 10963 10964 10966 10966 10967 10967 10968 10969 10970 10970 10971 10972 10973 10973 10974 10975 10976 10976 10977 10977 10978 10979 10979 10980 10980 10981 10982 10982 10981 10980 10979 10978 10976 10975 10974 10974
10900 10900 10901 10901 10901 10901 10902 10902 10903 10904 10904 10905 10905 10906 10908 10909 10910 10912 10913 10914 10916 10917 10919 10922 10923 10924 10926 10925 10929 10932 10929 10931 10936 10938 10940 10940 10941 10942 10944 10946 10948 10949 10949 10951 10952 10953 10955 10956 10957 10958 10958 10960 10960 10962 10963 10964 10964 10965 10966 10967 10968 10968 10968 10969 10971 10971 10972 10973 10973 10974 10975 10976 10976 10977 10978 10978 10978 10979 10980 10980 10980 10979 10978 10977 10974 10973 10972 10971
10893 10893 10893 10894 10894 10894 10894 10895 10896 10896 10898 10898 10899 10900 10901 10903 10904 10905 10907 10908 10909 10911 10913 10916 10917 10919 10920 10919 10924 10927 10924 10926 10929 10932 10935 10936 10937 10937 10939 10941 10943 10945 10946 10947 10948 10949 10951 10952 10954 10955 10956 10956 10957 10960 10961 10961 10963 10963 10964 10965 10965 10965 10966 10968 10969 10969 10969 10970 10971 10972 10973 10974 10974 10975 10976 10976 10977 10977 10978 10977 10977 10977 10976 10975 10974 10972 10971 10970
10885 10885 10886 10886 10886 10886 10886 10888 10888 10888 10890 10891 10891 10892 10893 10895 10897 10899 10900 10902 10903 10905 10907 10909 10911 10914 10913 10913 10919 10921 10919 10920 10922 10927 10930 10931 10932 10932 10933 10936 10938 10939 10941 10943 10943 10945 10947 10948 10950 10951 10953 10953 10955 10957 10957 10958 10960 10960 10961 10962 10962 10963 10964 10966 10966 10966 10967 10968 10969 10969 10971 10972 10973 10973 10974 10974 10975 10976 10976 10975 10975 10975 10976 10975 10973 10972 10971 10970
10877 10878 10878 10878 10879 10878 10878 10879 10880 10880 10882 10883 10884 10884 10885 10887 10889 10891 10893 10895 10896 10897 10900 10902 10904 10907 10907 10907 10912 10915 10915 10915 10916 10921 10923 10924 10926 10927 10929 10930 10932 10934 10936 10938 10940 10941 10943 10944 10946 10947 10949 10951 10952 10952 10953 10955 10957 10958 10958 10958 10960 10961 10962 10964 10963 10963 10965 10966 10966 10967 10969 10970 10971 10970 10971 10973 10974 10974 10975 10974 10974 10974 10975 10974 10972 10971 10971 10970
10869 10869 10869 10870 10870 10870 10869 10870 10871 10872 10873 10874 10875 10876 10877 10878 10881 10883 10885 10887 10889 10890 10893 10895 10897 10901 10900 10900 10905 10910 10911 10908 10910 10914 10915 10918 10921 10922 10924 10924 10926 10929 10930 10933 10935 10936 10938 10939 10941 10943 10945 10947 10948 10949 10950 10951 10952 10954 10954 10955 10957 10958 10959 10960 10960 10961 10962 10963 10964 10965 10966 10968 10969 10968 10969 10971 10972 10973 10973 10974 10974 10973 10973 10972 10971 10970 10969 10969
10859 10859 10860 10860 10861 10861 10860 10861 10862 10862 10863 10864 10865 10867 10868 10869 10871 10875 10877 10878 10880 10882 10885 10888 10891 10892 10892 10894 10897 10902 10904 10903 10904 10907 10908 10911 10915 10917 10918 10919 10920 10923 10926 10927 10929 10931 10933 10935 10937 10939 10941 10942 10943 10945 10945 10944 10946 10950 10951 10952 10955 10956 10957 10957 10957 10959 10959 10959 10961 10963 10964 10965 10966 10966 10967 10968 10969 10971 10971 10972 10973 10972 10972 10971 10971 10969 10968 10967
10849 10849 10850 10850 10851 10852 10850 10851 10852 10852 10853 10853 10855 10857 10858 10859 10861 10866 10869 10868 10871 10874 10876 10882 10883 10882 10886 10887 10887 10893 10897 10897 10897 10900 10902 10904 10908 10912 10912 10914 10915 10917 10920 10921 10922 10925 10928 10930 10933 10934 10935 10936 10938 10939 10938 10938 10943 10947 10948 10950 10952 10954 10954 10955 10955 10956 10957 10956 10958 10959 10960 10962 10963 10964 10964 10965 10967 10968 10969 10970 10970 10970 10970 10970 10969 10968 10966 10966
10837 10838 10838 10838 10839 10841 10840 10840 10840 10841 10843 10843 10844 10846 10849 10850 10850 10857 10860 10857 10862 10865 10867 10874 10874 10872 10878 10879 10878 10884 10888 10888 10891 10893 10895 10898 10901 10904 10906 10908 10910 10911 10913 10914 10916 10919 10923 10927 10928 10927 10928 10931 10933 10935 10934 10937 10942 10944 10945 10946 10948 10950 10951 10951 10951 10953 10954 10953 10953 10955 10957 10959 10960 10961 10962 10962 10964 10965 10967 10969 10969 10968 10968 10968 10968 10966 10966 10966
10825 10825 10825 10826 10827 10828 10829 10828 10828 10830 10831 10832 10833 10833 10838 10840 10839 10845 10851 10849 10851 10855 10859 10864 10866 10865 10868 10870 10870 10873 10878 10881 10884 10886 10887 10891 10893 10896 10899 10901 10903 10904 10904 10906 10911 10915 10919 10921 10919 10919 10924 10927 10929 10931 10931 10933 10937 10939 10940 10942 10943 10945 10946 10947 10947 10948 10950 10948 10949 10952 10954 10956 10956 10957 10959 10959 10961 10962 10964 10966 10967 10967 10966 10966 10966 10965 10965 10966
10812 10812 10811 10812 10813 10815 10816 10814 10815 10817 10818 10820 10822 10821 10824 10828 10829 10833 10840 10844 10840 10842 10849 10852 10857 10859 10853 10858 10864 10864 10869 10873 10875 10878 10880 10884 10887 10889 10891 10892 10896 10896 10896 10902 10907 10911 10914 10911 10909 10915 10920 10923 10925 10927 10927 10928 10932 10934 10935 10937 10938 10940 10941 10942 10943 10944 10945 10945 10945 10948 10950 10950 10952 10953 10955 10956 10958 10960 10961 10963 10965 10965 10965 10964 10964 10964 10965 10966
10798 10797 10797 10797 10797 10800 10802 10801 10800 10803 10805 10807 10808 10810 10811 10814 10819 10821 10827 10836 10832 10829 10838 10841 10845 10849 10843 10846 10855 10855 10858 10862 10866 10871 10873 10876 10879 10879 10882 10885 10887 10888 10891 10898 10900 10903 10905 10901 10903 10912 10916 10919 10920 10921 10922 10923 10926 10929 10930 10932 10933 10934 10936 10938 10939 10938 10941 10942 10942 10945 10946 10946 10948 10950 10952 10954 10956 10957 10959 10960 10961 10963 10963 10962 10962 10963 10964 10965
10783 10783 10782 10782 10781 10782 10786 10787 10785 10787 10791 10793 10794 10796 10798 10801 10805 10809 10814 10825 10827 10818 10820 10829 10833 10838 10836 10831 10838 10848 10850 10851 10858 10865 10867 10868 10867 10868 10875 10877 10877 10882 10887 10890 10892 10895 10896 10895 10901 10908 10911 10913 10914 10915 10917 10918 10921 10922 10924 10926 10927 10928 10932 10933 10934 10934 10935 10938 10940 10942 10943 10942 10944 10947 10949 10951 10953 10954 10956 10957 10959 10961 10962 10961 10961 10962 10962 10963
10769 10768 10768 10768 10766 10765 10768 10771 10770 10770 10774 10778 10780 10781 10784 10788 10790 10797 10802 10810 10822 10811 10800 10814 10824 10824 10822 10818 10828 10841 10839 10840 10848 10854 10858 10858 10855 10859 10866 10868 10870 10877 10881 10880 10883 10887 10888 10891 10897 10901 10904 10906 10907 10909 10911 10912 10914 10917 10919 10920 10920 10923 10926 10928 10930 10930 10931 10934 10936 10939 10940 10938 10939 10943 10945 10948 10950 10951 10953 10955 10957 10958 10960 10960 10960 10961 10961 10962
10754 10752 10752 10753 10753 10750 10751 10754 10756 10756 10758 10761 10765 10767 10770 10774 10776 10784 10790 10795 10809 10804 10788 10797 10809 10810 10808 10811 10820 10825 10826 10834 10838 10840 10848 10850 10847 10848 10855 10861 10864 10868 10871 10869 10874 10881 10883 10887 10891 10894 10897 10899 10901 10904 10905 10907 10909 10912 10913 10913 10914 10919 10921 10923 10926 10926 10928 10930 10932 10935 10936 10933 10935 10939 10940 10943 10946 10947 10950 10953 10954 10955 10958 10958 10958 10959 10960 10961
10740 10737 10737 10737 10738 10738 10735 10737 10740 10741 10743 10745 10750 10754 10757 10761 10764 10769 10776 10783 10791 10791 10784 10783 10790 10796 10796 10799 10808 10812 10820 10827 10822 10826 10839 10841 10837 10838 10846 10854 10856 10858 10859 10860 10869 10878 10876 10877 10883 10886 10889 10893 10896 10898 10898 10900 10904 10906 10906 10906 10910 10914 10916 10918 10921 10922 10924 10925 10926 10932 10933 10930 10932 10934 10934 10938 10941 10943 10947 10950 10951 10952 10954 10956 10956 10957 10958 10959
10726 10723 10721 10720 10721 10724 10722 10722 10725 10725 10727 10732 10735 10740 10745 10748 10753 10756 10760 10770 10774 10773 10776 10773 10772 10779 10782 10788 10797 10803 10810 10812 10809 10816 10825 10827 10827 10830 10837 10844 10846 10846 10846 10854 10866 10868 10863 10867 10875 10878 10882 10887 10890 10890 10891 10894 10898 10899 10899 10902 10906 10909 10911 10913 10915 10917 10918 10919 10922 10927 10928 10928 10929 10928 10929 10932 10935 10939 10942 10944 10946 10948 10951 10953 10954 10954 10955 10957
10711 10708 10706 10703 10703 10705 10706 10708 10710 10709 10709 10715 10719 10723 10730 10734 10740 10744 10744 10755 10759 10753 10758 10762 10759 10762 10767 10777 10787 10790 10795 10800 10802 10803 10809 10818 10820 10821 10829 10833 10834 10836 10838 10850 10858 10855 10854 10862 10867 10871 10877 10882 10883 10883 10886 10891 10892 10892 10895 10898 10901 10904 10906 10907 10909 10911 10912 10915 10918 10919 10922 10925 10924 10922 10923 10927 10930 10933 10936 10938 10941 10944 10947 10950 10951 10951 10952 10954
10694 10692 10689 10687 10686 10684 10687 10690 10692 10694 10693 10698 10703 10706 10714 10718 10724 10728 10729 10744 10742 10724 10734 10746 10744 10748 10753 10762 10773 10778 10782 10788 10792 10791 10795 10809 10812 10811 10819 10821 10823 10829 10833 10842 10849 10847 10849 10854 10860 10867 10873 10875 10876 10878 10883 10885 10884 10886 10891 10893 10895 10898 10899 10901 10903 10904 10908 10913 10912 10911 10914 10917 10917 10917 10919 10922 10924 10927 10929 10933 10938 10940 10944 10947 10949 10949 10949 10951
10678 10675 10671 10671 10669 10665 10667 10669 10670 10675 10676 10682 10686 10690 10697 10699 10705 10711 10715 10728 10714 10693 10710 10725 10728 10741 10745 10749 10761 10768 10771 10776 10779 10781 10786 10797 10802 10803 10809 10813 10818 10824 10827 10836 10844 10841 10841 10848 10856 10863 10866 10866 10869 10874 10877 10877 10877 10881 10886 10886 10888 10892 10893 10896 10897 10899 10906 10908 10903 10901 10903 10908 10912 10912 10913 10917 10919 10921 10925 10929 10934 10937 10940 10943 10946 10948 10948 10948
10661 10658 10654 10653 10651 10649 10649 10648 10648 10652 10657 10664 10669 10674 10678 10679 10687 10693 10696 10699 10680 10669 10689 10704 10720 10742 10742 10741 10751 10757 10762 10764 10766 10773 10778 10786 10791 10795 10801 10807 10811 10816 10822 10831 10833 10831 10834 10842 10848 10852 10856 10857 10862 10868 10870 10869 10872 10876 10879 10879 10882 10886 10888 10891 10893 10896 10900 10897 10892 10891 10893 10903 10908 10906 10908 10913 10915 10917 10920 10925 10930 10934 10937 10940 10942 10945 10947 10947
10645 10640 10637 10634 10632 10631 10629 10627 10628 10631 10635 10643 10650 10655 10659 10662 10669 10671 10672 10665 10646 10649 10674 10693 10717 10736 10735 10736 10739 10741 10748 10751 10753 10760 10766 10772 10779 10785 10791 10794 10798 10806 10813 10814 10814 10818 10823 10828 10835 10842 10847 10850 10856 10863 10863 10863 10865 10869 10872 10874 10876 10880 10882 10886 10887 10889 10890 10888 10886 10885 10890 10902 10906 10904 10907 10911 10911 10912 10917 10922 10926 10930 10934 10937 10939 10942 10945 10946
10629 10623 10619 10616 10612 10610 10608 10606 10608 10610 10615 10622 10629 10635 10638 10644 10648 10646 10643 10629 10617 10640 10671 10688 10708 10719 10722 10726 10723 10723 10731 10735 10738 10743 10750 10759 10765 10772 10779 10783 10790 10798 10800 10799 10803 10811 10815 10821 10831 10838 10841 10844 10851 10856 10855 10855 10858 10863 10865 10866 10870 10874 10877 10880 10881 10882 10883 10882 10882 10884 10891 10898 10900 10901 10904 10907 10908 10910 10914 10918 10922 10926 10931 10934 10935 10938 10942 10945
10612 10605 10600 10597 10593 10590 10588 10587 10587 10590 10595 10601 10607 10613 10616 10621 10621 10614 10612 10607 10613 10643 10666 10674 10688 10699 10707 10712 10708 10708 10713 10716 10721 10725 10732 10744 10752 10760 10768 10773 10780 10784 10786 10791 10799 10805 10809 10818 10826 10828 10830 10835 10841 10845 10845 10848 10853 10855 10857 10862 10868 10870 10870 10874 10876 10877 10877 10877 10880 10884 10889 10891 10893 10896 10898 10903 10907 10908 10911 10915 10918 10924 10928 10930 10932 10934 10938 10941
10594 10588 10582 10577 10574 10572 10569 10568 10568 10570 10575 10581 10585 10589 10592 10595 10592 10588 10595 10605 10617 10636 10648 10654 10665 10676 10687 10691 10690 10692 10692 10694 10700 10704 10714 10729 10740 10747 10752 10757 10764 10770 10776 10784 10791 10795 10801 10810 10813 10815 10822 10828 10833 10836 10838 10843 10847 10847 10852 10860 10861 10859 10864 10870 10871 10871 10873 10876 10878 10881 10882 10882 10887 10891 10894 10899 10903 10904 10907 10910 10914 10920 10923 10926 10928 10930 10933 10936
10576 10572 10565 10559 10556 10553 10550 10549 10549 10551 10555 10560 10563 10566 10569 10571 10569 10574 10586 10597 10606 10617 10630 10638 10641 10650 10661 10666 10670 10670 10665 10666 10674 10683 10698 10715 10727 10734 10739 10746 10751 10757 10766 10773 10777 10782 10790 10797 10800 10806 10815 10821 10825 10827 10830 10836 10840 10842 10850 10854 10850 10853 10862 10867 10866 10868 10871 10873 10874 10874 10875 10878 10883 10887 10888 10892 10897 10900 10902 10905 10910 10916 10918 10922 10924 10925 10927 10931
10560 10556 10549 10544 10541 10537 10534 10532 10531 10533 10535 10539 10542 10544 10548 10549 10551 10560 10568 10576 10587 10598 10612 10618 10617 10626 10640 10647 10653 10652 10649 10654 10663 10675 10691 10705 10716 10722 10724 10728 10734 10744 10755 10759 10762 10770 10779 10784 10788 10797 10805 10809 10813 10816 10823 10832 10837 10841 10845 10843 10845 10854 10861 10862 10862 10865 10866 10866 10868 10869 10871 10875 10879 10881 10882 10886 10891 10895 10897 10899 10906 10910 10912 10916 10919 10920 10922 10926
10544 10541 10535 10531 10527 10524 10521 10518 10516 10517 10517 10520 10522 10524 10528 10530 10533 10540 10547 10556 10568 10577 10588 10595 10598 10609 10621 10629 10638 10639 10640 10648 10656 10668 10681 10689 10695 10699 10701 10708 10719 10730 10739 10743 10749 10762 10771 10774 10780 10790 10795 10798 10803 10810 10822 10832 10834 10836 10838 10839 10845 10853 10855 10856 10857 10858 10859 10861 10863 10865 10867 10871 10873 10875 10878 10883 10888 10891 10892 10895 10900 10903 10906 10909 10913 10915 10918 10922
10530 10527 10523 10519 10515 10511 10509 10506 10503 10503 10503 10503 10505 10507 10510 10513 10515 10520 10528 10540 10550 10556 10566 10576 10582 10593 10602 10610 10619 10622 10626 10636 10644 10654 10667 10670 10670 10675 10685 10697 10707 10717 10727 10737 10747 10755 10761 10767 10775 10782 10784 10789 10801 10812 10822 10827 10827 10831 10833 10835 10842 10847 10849 10851 10852 10852 10855 10858 10859 10861 10864 10866 10868 10872 10876 10881 10884 10886 10889 10891 10894 10897 10900 10903 10907 10910 10913 10918
10519 10514 10510 10507 10505 10500 10498 10496 10492 10491 10491 10490 10490 10493 10495 10497 10500 10505 10513 10522 10530 10538 10548 10557 10564 10573 10580 10586 10594 10601 10612 10626 10634 10642 10650 10650 10649 10659 10675 10685 10694 10710 10726 10737 10744 10749 10756 10766 10770 10769 10774 10788 10802 10810 10813 10815 10818 10822 10824 10828 10834 10838 10842 10845 10846 10848 10851 10853 10854 10857 10859 10861 10866 10870 10872 10875 10879 10882 10884 10887 10889 10892 10894 10897 10901 10906 10909 10914
10508 10505 10500 10495 10493 10490 10487 10484 10482 10480 10480 10479 10479 10480 10481 10484 10487 10491 10498 10505 10512 10520 10530 10538 10546 10554 10559 10565 10575 10588 10603 10616 10623 10625 10626 10623 10627 10646 10668 10680 10692 10708 10718 10725 10733 10739 10747 10756 10757 10756 10768 10786 10795 10796 10799 10804 10808 10811 10814 10820 10825 10830 10835 10839 10840 10841 10843 10845 10848 10850 10852 10857 10863 10865 10867 10872 10875 10877 10879 10881 10883 10886 10889 10893 10898 10901 10906 10910
10497 10494 10492 10487 10483 10480 10477 10474 10472 10470 10469 10469 10468 10468 10470 10472 10474 10479 10485 10491 10497 10504 10513 10521 10529 10535 10542 10552 10565 10576 10588 10601 10607 10605 10605 10608 10619 10641 10665 10678 10690 10700 10706 10713 10721 10724 10727 10736 10744 10751 10764 10777 10782 10783 10788 10794 10798 10804 10810 10816 10822 10826 10830 10832 10832 10833 10836 10839 10842 10845 10847 10854 10860 10861 10864 10870 10871 10872 10874 10876 10878 10881 10884 10889 10892 10896 10902 10906
10491 10485 10483 10480 10475 10471 10469 10466 10463 10461 10460 10458 10458 10458 10459 10461 10463 10467 10472 10478 10483 10489 10497 10505 10512 10518 10526 10538 10551 10560 10570 10583 10586 10585 10591 10601 10613 10634 10657 10669 10678 10688 10696 10704 10711 10711 10714 10728 10742 10748 10753 10763 10772 10777 10782 10788 10797 10804 10808 10812 10818 10821 10823 10826 10826 10829 10833 10835 10838 10840 10842 10852 10858 10857 10862 10867 10866 10868 10870 10871 10874 10877 10879 10884 10888 10893 10898 10901
10486 10479 10474 10472 10468 10464 10460 10457 10455 10453 10451 10450 10449 10449 10450 10451 10454 10457 10461 10466 10470 10476 10483 10490 10497 10503 10510 10522 10534 10543 10554 10563 10564 10569 10579 10586 10599 10625 10648 10659 10667 10677 10689 10699 10703 10704 10711 10728 10739 10741 10744 10755 10767 10774 10779 10787 10795 10800 10802 10807 10811 10814 10818 10821 10823 10826 10830 10832 10835 10835 10839 10850 10854 10853 10860 10864 10862 10864 10866 10866 10870 10873 10876 10882 10887 10891 10894 10897
10479 10474 10469 10464 10460 10457 10453 10450 10447 10444 10443 10442 10441 10440 10441 10442 10445 10447 10451 10455 10460 10466 10473 10478 10483 10488 10495 10507 10519 10528 10537 10543 10550 10560 10568 10574 10593 10621 10642 10653 10660 10670 10682 10690 10690 10693 10706 10721 10730 10734 10739 10747 10758 10765 10768 10774 10783 10790 10795 10800 10804 10808 10812 10815 10818 10824 10826 10828 10830 10829 10835 10847 10849 10849 10858 10860 10858 10859 10860 10862 10867 10870 10874 10880 10883 10885 10887 10890
10472 10467 10464 10459 10453 10449 10446 10442 10439 10437 10435 10434 10433 10433 10433 10434 10436 10438 10441 10445 10450 10456 10462 10467 10472 10475 10482 10494 10505 10512 10518 10527 10540 10552 10557 10568 10591 10615 10632 10641 10650 10662 10673 10676 10675 10683 10697 10709 10719 10728 10731 10735 10746 10754 10758 10765 10776 10784 10789 10793 10797 10802 10805 10810 10816 10820 10820 10822 10823 10823 10831 10841 10843 10846 10854 10855 10852 10854 10856 10859 10864 10867 10871 10875 10875 10877 10880 10885
10466 10460 10456 10453 10449 10444 10440 10436 10433 10430 10428 10426 10426 10426 10425 10426 10428 10430 10432 10436 10440 10445 10450 10454 10460 10465 10471 10482 10491 10496 10502 10515 10531 10541 10547 10563 10588 10607 10618 10625 10637 10652 10658 10658 10663 10673 10684 10698 10710 10718 10720 10723 10734 10745 10752 10760 10769 10776 10782 10786 10789 10794 10799 10805 10810 10812 10815 10817 10816 10817 10825 10835 10838 10841 10845 10846 10846 10850 10853 10856 10861 10864 10867 10869 10869 10872 10877 10882
10462 10456 10449 10445 10443 10440 10435 10431 10427 10424 10422 10419 10419 10419 10418 10418 10420 10422 10424 10427 10431 10436 10440 10444 10450 10454 10461 10470 10479 10484 10490 10504 10521 10528 10537 10558 10581 10597 10605 10613 10628 10640 10642 10647 10657 10667 10680 10696 10704 10706 10706 10711 10723 10737 10747 10754 10760 10767 10773 10778 10782 10788 10794 10799 10801 10804 10809 10810 10809 10813 10820 10827 10831 10832 10835 10840 10844 10847 10851 10855 10857 10860 10862 10863 10864 10868 10872 10876
10458 10453 10447 10440 10436 10434 10431 10427 10423 10419 10417 10414 10412 10412 10412 10412 10412 10415 10417 10419 10423 10427 10431 10436 10441 10445 10451 10459 10468 10474 10480 10495 10510 10517 10528 10550 10572 10586 10595 10605 10617 10627 10632 10640 10651 10664 10679 10691 10692 10693 10698 10705 10717 10730 10738 10744 10751 10759 10768 10775 10780 10784 10788 10791 10793 10798 10802 10804 10805 10808 10813 10820 10823 10824 10830 10839 10843 10845 10849 10852 10852 10853 10855 10857 10860 10863 10867 10873
10453 10448 10443 10437 10431 10427 10425 10421 10418 10415 10412 10410 10407 10405 10406 10405 10406 10408 10410 10412 10416 10419 10423 10427 10432 10437 10443 10449 10457 10464 10472 10486 10500 10508 10521 10542 10562 10576 10587 10595 10607 10618 10623 10631 10645 10662 10672 10676 10678 10682 10691 10702 10713 10722 10729 10737 10745 10753 10762 10769 10774 10778 10782 10785 10789 10793 10796 10798 10800 10803 10808 10814 10816 10820 10828 10836 10839 10841 10844 10844 10844 10847 10851 10854 10857 10861 10865 10871
10449 10443 10438 10432 10426 10422 10419 10416 10413 10410 10407 10405 10402 10400 10400 10400 10400 10401 10403 10405 10408 10412 10415 10420 10424 10430 10435 10440 10447 10456 10466 10479 10491 10500 10514 10533 10553 10568 10576 10584 10595 10606 10612 10623 10639 10651 10657 10661 10667 10674 10686 10698 10708 10715 10723 10730 10738 10746 10754 10762 10768 10773 10775 10777 10781 10786 10788 10792 10796 10799 10803 10805 10808 10816 10825 10830 10833 10834 10835 10837 10841 10845 10850 10853 10855 10858 10862 10866